Time,TemperatureF,DewpointF,PressureIn,WindDirection,WindDirectionDegrees,WindSpeedMPH,WindSpeedGustMPH,Humidity,HourlyPrecipIn,Conditions,Clouds,dailyrainin,SoftwareType,DateUTC
2013-01-31 00:14:00,36.5,29.0,29.62,WNW,285,18.0,-999.0,73,-99.99,,,0.01,weatherlink.com 1.10,2013-01-31 05:14:00,
2013-01-31 00:30:00,36.2,28.0,29.64,WNW,288,10.0,-999.0,72,-99.99,,,0.01,weatherlink.com 1.10,2013-01-31 05:30:00,
2013-01-31 00:44:00,35.9,29.0,29.64,WNW,300,9.0,-999.0,75,-99.99,,,0.01,weatherlink.com 1.10,2013-01-31 05:44:00,
2013-01-31 00:59:00,35.5,29.0,29.66,WNW,290,10.0,-999.0,78,-99.99,,,0.01,weatherlink.com 1.10,2013-01-31 05:59:00,
2013-01-31 01:14:00,34.6,28.0,29.67,NW,309,9.0,-999.0,78,-99.99,,,0.01,weatherlink.com 1.10,2013-01-31 06:14:00,
2013-01-31 01:30:00,34.8,27.0,29.69,WNW,295,9.0,-999.0,72,-99.99,,,0.00,weatherlink.com 1.10,2013-01-31 06:30:00,
2013-01-31 01:45:00,34.6,27.0,29.69,WNW,302,11.0,-999.0,73,-99.99,,,0.00,weatherlink.com 1.10,2013-01-31 06:45:00,
2013-01-31 02:00:00,34.6,28.0,29.70,West,275,9.0,-999.0,76,-99.99,,,0.00,weatherlink.com 1.10,2013-01-31 07:00:00,
2013-01-31 02:15:00,34.6,27.0,29.71,West,269,24.0,-999.0,73,-99.99,,,0.00,weatherlink.com 1.10,2013-01-31 07:15:00,
2013-01-31 02:30:00,34.6,26.0,29.72,WNW,299,19.0,-999.0,72,-99.99,,,0.00,weatherlink.com 1.10,2013-01-31 07:30:00,
2013-01-31 02:45:00,34.1,27.0,29.73,West,277,11.0,-999.0,76,-99.99,,,0.00,weatherlink.com 1.10,2013-01-31 07:45:00,
2013-01-31 03:00:00,33.8,26.0,29.73,WSW,248,17.0,-999.0,73,-99.99,,,0.00,weatherlink.com 1.10,2013-01-31 08:00:00,
2013-01-31 03:15:00,33.8,26.0,29.75,WNW,288,13.0,-999.0,72,-99.99,,,0.00,weatherlink.com 1.10,2013-01-31 08:15:00,
2013-01-31 03:30:00,33.5,25.0,29.75,WNW,286,17.0,-999.0,72,-99.99,,,0.00,weatherlink.com 1.10,2013-01-31 08:30:00,
2013-01-31 03:45:00,33.4,25.0,29.76,West,265,8.0,-999.0,71,-99.99,,,0.00,weatherlink.com 1.10,2013-01-31 08:45:00,
2013-01-31 04:00:00,33.0,24.0,29.77,West,263,18.0,-999.0,70,-99.99,,,0.00,weatherlink.com 1.10,2013-01-31 09:00:00,
2013-01-31 04:15:00,32.7,23.0,29.77,NW,306,15.0,-999.0,68,-99.99,,,0.00,weatherlink.com 1.10,2013-01-31 09:15:00,
2013-01-31 04:30:00,32.6,22.0,29.78,WNW,289,10.0,-999.0,66,-99.99,,,0.00,weatherlink.com 1.10,2013-01-31 09:30:00,
2013-01-31 04:45:00,32.3,22.0,29.79,NW,306,7.0,-999.0,66,-99.99,,,0.00,weatherlink.com 1.10,2013-01-31 09:45:00,
2013-01-31 05:01:00,31.9,21.0,29.79,WNW,295,7.0,-999.0,65,-99.99,,,0.00,weatherlink.com 1.10,2013-01-31 10:01:00,
2013-01-31 05:15:00,31.5,21.0,29.80,West,277,16.0,-999.0,66,-99.99,,,0.00,weatherlink.com 1.10,2013-01-31 10:15:00,
2013-01-31 05:30:00,31.3,20.0,29.80,WNW,292,7.0,-999.0,64,-99.99,,,0.00,weatherlink.com 1.10,2013-01-31 10:30:00,
2013-01-31 05:45:00,31.1,21.0,29.81,WNW,283,12.0,-999.0,65,-99.99,,,0.00,weatherlink.com 1.10,2013-01-31 10:45:00,
2013-01-31 06:01:00,31.0,21.0,29.81,WNW,292,12.0,-999.0,66,-99.99,,,0.00,weatherlink.com 1.10,2013-01-31 11:01:00,
2013-01-31 06:15:00,30.9,21.0,29.82,West,276,12.0,-999.0,68,-99.99,,,0.00,weatherlink.com 1.10,2013-01-31 11:15:00,
2013-01-31 06:31:00,30.9,22.0,29.83,WNW,284,8.0,-999.0,69,-99.99,,,0.00,weatherlink.com 1.10,2013-01-31 11:31:00,
2013-01-31 06:46:00,30.6,23.0,29.84,West,276,15.0,-999.0,73,-99.99,,,0.00,weatherlink.com 1.10,2013-01-31 11:46:00,
2013-01-31 07:01:00,30.4,24.0,29.84,West,275,12.0,-999.0,76,-99.99,,,0.00,weatherlink.com 1.10,2013-01-31 12:01:00,
2013-01-31 07:16:00,30.8,22.0,29.86,West,280,12.0,-999.0,69,-99.99,,,0.00,weatherlink.com 1.10,2013-01-31 12:16:00,
2013-01-31 07:31:00,30.6,22.0,29.87,WSW,253,12.0,-999.0,70,-99.99,,,0.00,weatherlink.com 1.10,2013-01-31 12:31:00,
2013-01-31 07:46:00,30.3,23.0,29.87,WNW,284,6.0,-999.0,74,-99.99,,,0.00,weatherlink.com 1.10,2013-01-31 12:46:00,
2013-01-31 08:01:00,30.3,23.0,29.88,West,267,8.0,-999.0,75,-99.99,,,0.00,weatherlink.com 1.10,2013-01-31 13:01:00,
2013-01-31 08:16:00,30.3,24.0,29.88,WNW,299,12.0,-999.0,77,-99.99,,,0.00,weatherlink.com 1.10,2013-01-31 13:16:00,
2013-01-31 08:31:00,29.9,24.0,29.89,West,277,8.0,-999.0,80,-99.99,,,0.00,weatherlink.com 1.10,2013-01-31 13:31:00,
2013-01-31 08:46:00,29.8,25.0,29.90,WNW,300,3.0,-999.0,82,-99.99,,,0.00,weatherlink.com 1.10,2013-01-31 13:46:00,
2013-01-31 09:16:00,29.4,26.0,29.92,WNW,296,5.0,-999.0,86,-99.99,,,0.00,weatherlink.com 1.10,2013-01-31 14:16:00,
2013-01-31 09:32:00,29.0,26.0,29.93,NW,307,9.0,-999.0,87,-99.99,,,0.00,weatherlink.com 1.10,2013-01-31 14:32:00,
2013-01-31 09:46:00,28.5,26.0,29.94,NW,309,14.0,-999.0,89,-99.99,,,0.00,weatherlink.com 1.10,2013-01-31 14:46:00,
2013-01-31 10:01:00,28.8,26.0,29.94,NW,304,8.0,-999.0,88,-99.99,,,0.00,weatherlink.com 1.10,2013-01-31 15:01:00,
2013-01-31 10:16:00,29.2,26.0,29.95,NW,308,6.0,-999.0,87,-99.99,,,0.00,weatherlink.com 1.10,2013-01-31 15:16:00,
2013-01-31 10:31:00,29.8,26.0,29.96,WNW,298,8.0,-999.0,86,-99.99,,,0.00,weatherlink.com 1.10,2013-01-31 15:31:00,
2013-01-31 10:46:00,30.1,26.0,29.96,West,279,15.0,-999.0,83,-99.99,,,0.00,weatherlink.com 1.10,2013-01-31 15:46:00,
2013-01-31 11:01:00,30.7,26.0,29.96,WNW,289,9.0,-999.0,82,-99.99,,,0.00,weatherlink.com 1.10,2013-01-31 16:01:00,
2013-01-31 11:16:00,31.1,26.0,29.97,WNW,282,7.0,-999.0,80,-99.99,,,0.00,weatherlink.com 1.10,2013-01-31 16:16:00,
2013-01-31 11:32:00,31.4,26.0,29.97,WNW,297,5.0,-999.0,80,-99.99,,,0.00,weatherlink.com 1.10,2013-01-31 16:32:00,
2013-01-31 11:46:00,31.8,24.0,29.97,West,276,13.0,-999.0,72,-99.99,,,0.00,weatherlink.com 1.10,2013-01-31 16:46:00,
2013-01-31 12:01:00,32.4,23.0,29.97,NW,319,12.0,-999.0,68,-99.99,,,0.00,weatherlink.com 1.10,2013-01-31 17:01:00,
2013-01-31 12:17:00,32.8,23.0,29.98,WNW,295,12.0,-999.0,67,-99.99,,,0.00,weatherlink.com 1.10,2013-01-31 17:17:00,
2013-01-31 12:31:00,32.4,23.0,29.97,WNW,289,9.0,-999.0,67,-99.99,,,0.00,weatherlink.com 1.10,2013-01-31 17:31:00,
2013-01-31 12:46:00,33.2,24.0,29.97,West,264,10.0,-999.0,69,-99.99,,,0.00,weatherlink.com 1.10,2013-01-31 17:46:00,
2013-01-31 13:01:00,33.3,23.0,29.96,WNW,287,10.0,-999.0,67,-99.99,,,0.00,weatherlink.com 1.10,2013-01-31 18:01:00,
2013-01-31 13:16:00,33.2,24.0,29.95,West,269,6.0,-999.0,69,-99.99,,,0.00,weatherlink.com 1.10,2013-01-31 18:16:00,
2013-01-31 13:32:00,33.7,24.0,29.95,WSW,248,11.0,-999.0,67,-99.99,,,0.00,weatherlink.com 1.10,2013-01-31 18:32:00,
2013-01-31 13:46:00,33.9,24.0,29.95,West,273,15.0,-999.0,66,-99.99,,,0.00,weatherlink.com 1.10,2013-01-31 18:46:00,
2013-01-31 14:01:00,34.1,24.0,29.96,WNW,287,10.0,-999.0,66,-99.99,,,0.00,weatherlink.com 1.10,2013-01-31 19:01:00,
2013-01-31 14:16:00,35.1,24.0,29.94,WNW,289,9.0,-999.0,63,-99.99,,,0.00,weatherlink.com 1.10,2013-01-31 19:16:00,
2013-01-31 14:31:00,35.2,24.0,29.94,WNW,284,6.0,-999.0,63,-99.99,,,0.00,weatherlink.com 1.10,2013-01-31 19:31:00,
2013-01-31 14:46:00,35.1,23.0,29.94,West,279,13.0,-999.0,61,-99.99,,,0.00,weatherlink.com 1.10,2013-01-31 19:46:00,
2013-01-31 15:01:00,35.9,23.0,29.94,WNW,295,16.0,-999.0,61,-99.99,,,0.00,weatherlink.com 1.10,2013-01-31 20:01:00,
2013-01-31 15:16:00,35.4,23.0,29.95,WNW,286,10.0,-999.0,61,-99.99,,,0.00,weatherlink.com 1.10,2013-01-31 20:16:00,
2013-01-31 15:31:00,35.4,23.0,29.95,West,273,9.0,-999.0,62,-99.99,,,0.00,weatherlink.com 1.10,2013-01-31 20:31:00,
2013-01-31 15:46:00,35.6,24.0,29.95,NW,309,7.0,-999.0,63,-99.99,,,0.00,weatherlink.com 1.10,2013-01-31 20:46:00,
2013-01-31 16:02:00,35.6,24.0,29.95,West,267,7.0,-999.0,62,-99.99,,,0.00,weatherlink.com 1.10,2013-01-31 21:02:00,
2013-01-31 16:16:00,35.8,24.0,29.94,West,262,3.0,-999.0,63,-99.99,,,0.00,weatherlink.com 1.10,2013-01-31 21:16:00,
2013-01-31 16:31:00,36.8,24.0,29.94,WNW,288,10.0,-999.0,60,-99.99,,,0.00,weatherlink.com 1.10,2013-01-31 21:31:00,
2013-01-31 16:47:00,36.7,24.0,29.94,WNW,288,5.0,-999.0,61,-99.99,,,0.01,weatherlink.com 1.10,2013-01-31 21:47:00,
2013-01-31 17:01:00,36.5,25.0,29.94,West,271,8.0,-999.0,63,-99.99,,,0.01,weatherlink.com 1.10,2013-01-31 22:01:00,
2013-01-31 17:16:00,36.5,24.0,29.93,West,259,9.0,-999.0,62,-99.99,,,0.01,weatherlink.com 1.10,2013-01-31 22:16:00,
2013-01-31 17:32:00,36.4,25.0,29.93,WNW,287,5.0,-999.0,63,-99.99,,,0.01,weatherlink.com 1.10,2013-01-31 22:32:00,
2013-01-31 17:47:00,36.2,25.0,29.93,WNW,284,2.0,-999.0,64,-99.99,,,0.01,weatherlink.com 1.10,2013-01-31 22:47:00,
2013-01-31 18:02:00,35.9,25.0,29.93,WNW,284,3.0,-999.0,65,-99.99,,,0.01,weatherlink.com 1.10,2013-01-31 23:02:00,
2013-01-31 18:17:00,35.9,25.0,29.93,WNW,284,0.0,-999.0,66,-99.99,,,0.01,weatherlink.com 1.10,2013-01-31 23:17:00,
2013-01-31 18:32:00,36.0,26.0,29.94,WNW,284,4.0,-999.0,67,-99.99,,,0.01,weatherlink.com 1.10,2013-01-31 23:32:00,
2013-01-31 18:47:00,36.1,26.0,29.93,WNW,284,3.0,-999.0,67,-99.99,,,0.01,weatherlink.com 1.10,2013-01-31 23:47:00,
2013-01-31 19:02:00,36.2,26.0,29.94,WNW,284,2.0,-999.0,67,-99.99,,,0.01,weatherlink.com 1.10,2013-02-01 00:02:00,
2013-01-31 19:17:00,36.4,26.0,29.94,West,265,4.0,-999.0,66,-99.99,,,0.01,weatherlink.com 1.10,2013-02-01 00:17:00,
2013-01-31 19:32:00,36.8,26.0,29.94,West,259,5.0,-999.0,65,-99.99,,,0.01,weatherlink.com 1.10,2013-02-01 00:32:00,
2013-01-31 19:47:00,37.2,26.0,29.95,WSW,244,9.0,-999.0,65,-99.99,,,0.01,weatherlink.com 1.10,2013-02-01 00:47:00,
2013-01-31 20:02:00,37.1,27.0,29.94,West,275,7.0,-999.0,66,-99.99,,,0.01,weatherlink.com 1.10,2013-02-01 01:02:00,
2013-01-31 20:17:00,37.0,27.0,29.93,West,262,5.0,-999.0,68,-99.99,,,0.01,weatherlink.com 1.10,2013-02-01 01:17:00,
2013-01-31 20:32:00,36.9,28.0,29.93,WNW,286,7.0,-999.0,69,-99.99,,,0.01,weatherlink.com 1.10,2013-02-01 01:32:00,
2013-01-31 20:47:00,36.8,28.0,29.93,West,281,6.0,-999.0,71,-99.99,,,0.01,weatherlink.com 1.10,2013-02-01 01:47:00,
2013-01-31 21:02:00,36.6,29.0,29.93,WSW,253,7.0,-999.0,73,-99.99,,,0.01,weatherlink.com 1.10,2013-02-01 02:02:00,
2013-01-31 21:17:00,36.1,30.0,29.92,SW,236,6.0,-999.0,77,-99.99,,,0.01,weatherlink.com 1.10,2013-02-01 02:17:00,
2013-01-31 21:32:00,35.6,30.0,29.92,West,273,4.0,-999.0,81,-99.99,,,0.01,weatherlink.com 1.10,2013-02-01 02:32:00,
2013-01-31 21:47:00,35.4,30.0,29.92,WSW,248,5.0,-999.0,82,-99.99,,,0.01,weatherlink.com 1.10,2013-02-01 02:47:00,
2013-01-31 22:02:00,34.8,31.0,29.91,WNW,290,5.0,-999.0,86,-99.99,,,0.01,weatherlink.com 1.10,2013-02-01 03:02:00,
2013-01-31 22:17:00,34.4,31.0,29.91,West,262,2.0,-999.0,88,-99.99,,,0.01,weatherlink.com 1.10,2013-02-01 03:17:00,
2013-01-31 22:32:00,34.3,31.0,29.91,West,267,3.0,-999.0,89,-99.99,,,0.01,weatherlink.com 1.10,2013-02-01 03:32:00,
2013-01-31 22:47:00,34.2,32.0,29.90,West,279,2.0,-999.0,90,-99.99,,,0.01,weatherlink.com 1.10,2013-02-01 03:47:00,
2013-01-31 23:19:00,34.3,32.0,29.92,NW,310,12.0,-999.0,91,-99.99,,,0.01,weatherlink.com 1.10,2013-02-01 04:19:00,
2013-01-31 23:32:00,33.4,31.0,29.93,WNW,284,7.0,-999.0,90,-99.99,,,0.01,weatherlink.com 1.10,2013-02-01 04:32:00,